This demonstration page uses our WeatherBlox Daily Observations layout. Learn more.

Left ArrowRight Arrow

Hourly Observations for August 16, 2015

Temp ( °F °C ) Dew Point ( °F °C ) Humidity (%) Winds ( mph kmh ) Pressure ( in mb ) Visibility ( mi km ) Precip ( " mm )
12:53 am 00:53 Clear 66 18.9 65 18.3 96 96 N N/A 30.15 1021 9 14 N/A
1:53 am 01:53 Clear 65 18.3 64 17.8 97 97 N N/A 30.15 1021 7 11 N/A
2:53 am 02:53 Clear with Mist and Fog 65 18.3 64 17.8 97 97 N N/A 30.15 1021 6 10 N/A
3:53 am 03:53 Clear 64 17.8 63 17.2 96 96 N N/A 30.14 1021 9 14 N/A
4:53 am 04:53 Clear with Mist and Fog 64 17.8 63 17.2 96 96 N N/A 30.14 1021 6 10 N/A
5:53 am 05:53 Mostly Clear 63 17.2 62 16.7 97 97 N N/A 30.14 1021 7 11 N/A
6:03 am 06:03 Mostly Cloudy with Mist and Fog 63 17.2 62 16.7 97 97 N N/A 30.12 1020 2 3 N/A
6:07 am 06:07 Mostly Cloudy with Mist and Fog 63 17.2 62 16.7 97 97 N N/A 30.12 1020 1 1 N/A
6:17 am 06:17 Cloudy with Mist and Fog 63 17.2 62 16.7 97 97 N N/A 30.12 1020 2 3 N/A
6:24 am 06:24 Cloudy with Mist and Fog 63 17.2 62 16.7 97 97 N N/A 30.12 1020 6 10 N/A
6:28 am 06:28 Cloudy with Mist and Fog 63 17.2 62 16.7 97 97 N N/A 30.12 1020 2 2 N/A
6:36 am 06:36 Mostly Cloudy with Fog 63 17.2 63 17.2 100 100 N N/A 30.12 1020 0 0 N/A
6:53 am 06:53 Mostly Cloudy with Fog 64 17.8 63 17.2 96 96 N N/A 30.15 1021 0 0 N/A
7:53 am 07:53 Mostly Cloudy with Mist and Fog 65 18.3 64 17.8 97 97 N N/A 30.17 1022 2 2 N/A
7:55 am 07:55 Mostly Cloudy with Mist and Fog 65 18.3 64 17.8 97 97 N N/A 30.15 1021 2 3 N/A
8:03 am 08:03 Partly Cloudy with Mist and Fog 66 18.9 65 18.3 96 96 N N/A 30.15 1021 5 8 N/A
8:53 am 08:53 Sunny 71 21.7 67 19.4 87 87 N N/A 30.19 1022 10 16 N/A
9:53 am 09:53 Sunny 76 24.4 67 19.4 74 74 VRB 3 6 30.20 1023 10 16 N/A
10:53 am 10:53 Sunny 80 26.7 66 18.9 62 62 VRB 5 7 30.20 1023 10 16 N/A
11:53 am 11:53 Sunny 83 28.3 66 18.9 57 57 VRB 5 7 30.19 1023 10 16 N/A
12:53 pm 12:53 Sunny 86 30 68 20 55 55 VRB 3 6 30.18 1022 10 16 N/A
1:53 pm 13:53 Mostly Sunny 87 30.6 66 18.9 50 50 VRB 5 7 30.15 1021 10 16 N/A
2:53 pm 14:53 Sunny 87 30.6 67 19.4 51 51 NW 5 7 30.14 1021 10 16 N/A
3:53 pm 15:53 Partly Cloudy 86 30 67 19.4 53 53 N N/A 30.11 1020 10 16 N/A
4:53 pm 16:53 Mostly Cloudy 89 31.7 66 18.9 47 47 NE 5 7 30.09 1019 10 16 N/A
5:53 pm 17:53 Mostly Cloudy 89 31.7 67 19.4 48 48 VRB 5 7 30.09 1019 10 16 N/A
6:53 pm 18:53 Mostly Sunny 86 30 70 21.1 59 59 VRB 5 7 30.09 1019 10 16 N/A
7:53 pm 19:53 Sunny 82 27.8 71 21.7 69 69 NW 6 9 30.09 1019 10 16 N/A
8:53 pm 20:53 Mostly Clear 75 23.9 72 22.2 90 90 N N/A 30.09 1019 10 16 N/A
9:53 pm 21:53 Clear 73 22.8 70 21.1 90 90 N N/A 30.11 1020 10 16 N/A
10:53 pm 22:53 Clear 72 22.2 69 20.6 91 91 N N/A 30.12 1020 9 14 N/A
11:53 pm 23:53 Clear 70 21.1 69 20.6 97 97 N N/A 30.12 1020 7 11 N/A

Powered by AerisWeather